Content
SEND FEEDBACK

Daily
Averages
Monthly
Summary
United States of America

ASATDAS, GUAM


Home > North America > United States > Guam
Elevation: 612 feet     Latitude: 13 35N     Longitude: 144 56E

WEATHER
 
SELECT A DAY
Number of Records: 208,997;   Date Range: 1/1/95 - 7/26/14
 
SHARE

PRINT THIS DATA

[ ← Previous Day ]
WEATHER ALMANAC - AUGUST 17, 2013
[ Next Day → ]
[ °C ]   °F
Weather ElementAverageHighLow
Temperature82.2 °F88 °F (12:54 pm)75.9 °F (1:54 am)
Dewpoint74.9 °F77 °F (8:54 am)73 °F (3:54 pm)
Humidity78.9 %94 % (1:54 am)63 % (12:54 pm)
Barometer29.83 in29.87 in (8:54 pm)29.80 in (3:54 am)
Wind Speed4.4 mph12.7 mph (12:54 pm)
Wind Gust17.3 mph (12:54 pm)
Weather ElementAverage
Visibility10 mi
Wind DirectionESE (106.7 °)

Weather ElementTotal
Precipitation---
Cooling Degree Days17 (Base 65)
Growing Degree Days32 (Base 50)
Averaged from 24 records on August 17, 2013
WEATHER CONDITIONS BREAKOUT
WIND DIRECTION BREAKOUT
WEATHER BY HOUR - AUGUST 17, 2013
[ °C ]   °F
Local TimeTemperatureDewpointHumidityBarometerVisibilityWind DirectionWind SpeedGust SpeedPrecipitationEventsConditions
1:54 AM75.9 °F73.9 °F94 %29.82 in10.0 miCalmClear
2:54 AM78.1 °F75.0 °F90 %29.81 in10.0 miSE (140°)3.5 mphPartly Cloudy
3:54 AM78.1 °F75.0 °F90 %29.80 in10.0 miCalmClear
4:54 AM78.1 °F75.0 °F90 %29.81 in10.0 miCalmClear
5:54 AM78.1 °F75.0 °F90 %29.82 in10.0 miCalmClear
6:54 AM78.1 °F75.0 °F90 %29.83 in10.0 miSouth (190°)3.5 mphPartly Cloudy
7:54 AM80.1 °F75.9 °F87 %29.85 in10.0 miCalm0.00 inClear
8:54 AM84.0 °F77.0 °F79 %29.85 in10.0 miSouth (170°)5.8 mphClear
9:54 AM86.0 °F75.9 °F72 %29.85 in10.0 miSSE (150°)9.2 mphScattered Clouds
10:54 AM87.1 °F75.0 °F67 %29.84 in10.0 miSSE (150°)9.2 mphClear
11:54 AM87.1 °F75.0 °F67 %29.83 in10.0 miSSE (160°)11.5 mphClear
12:54 PM88.0 °F73.9 °F63 %29.82 in10.0 miSE (140°)12.7 mph17.3 mphClear
1:54 PM87.1 °F75.0 °F67 %29.81 in10.0 miSSE (160°)9.2 mphPartly Cloudy
2:54 PM86.0 °F75.0 °F70 %29.80 in10.0 miSSE (160°)10.4 mphClear
3:54 PM82.0 °F73.0 °F74 %29.81 in10.0 miWNW (290°)8.1 mphMostly Cloudy
4:07 PM84.2 °F75.2 °F74 %29.83 in10.0 miNW (320°)4.6 mphScattered Clouds
4:54 PM84.9 °F75.0 °F72 %29.81 in10.0 miESE (120°)5.8 mphPartly Cloudy
5:54 PM84.0 °F75.0 °F74 %29.83 in10.0 miSE (140°)3.5 mphPartly Cloudy
6:54 PM82.0 °F73.9 °F76 %29.84 in10.0 miSouth (170°)4.6 mphPartly Cloudy
7:54 PM81.0 °F73.0 °F77 %29.86 in10.0 miCalmPartly Cloudy
8:54 PM81.0 °F73.9 °F79 %29.87 in10.0 miCalmPartly Cloudy
9:54 PM81.0 °F75.0 °F82 %29.87 in10.0 miCalmClear
10:54 PM81.0 °F75.0 °F82 %29.87 in10.0 miEast (100°)3.5 mphPartly Cloudy
11:54 PM80.1 °F75.9 °F87 %29.85 in10.0 miCalmPartly Cloudy
Hourly data recorded from PGUM, located miles away from Asatdas, Guam







STORIES FROM OUR PARTNERS